Regional Weather Roundup
Issued by NWS Newport/Morehead, NC

Current Version | Previous Version | Text Only | Print | Product List | Glossary On
Versions: 1 2 3 4 5 6 7 8 9 10 11 12 13 14 15 16 17 18 19 20 21 22 23 24 25 26 27 28 29 30 31 32 33 34 35 36 37 38 39 40 41 42 43 44 45 46 47 48 49 50
000
ASUS42 KMHX 040713
RWRMHX
WEATHER ROUNDUP FOR EASTERN NORTH CAROLINA
NATIONAL WEATHER SERVICE NEWPORT/MOREHEAD CITY NC
300 AM EDT SAT JUL 04 2015

NOTE: "FAIR" INDICATES FEW OR NO CLOUDS BELOW 12,000 FEET
WITH NO SIGNIFICANT WEATHER AND/OR OBSTRUCTIONS TO VISIBILITY

NCZ015>017-031-032-045>047-102-103-040800-
NORTH COAST

CITY           SKY/WX    TMP DP  RH WIND       PRES   REMARKS
EDENTON        CLOUDY    75  72  89 SW12      29.88F
ELIZABETH CITY PTCLDY    75  73  93 SW13      29.87S
KITTY HAWK     SUNNY     75  73  93 SW8       29.87F
MANTEO         MOCLDY    75  73  93 SW13      29.88F

$$

NCZ045>047-081-094-103-104-040800-
CENTRAL COAST

CITY           SKY/WX    TMP DP  RH WIND       PRES   REMARKS
FRISCO         MOCLDY    76  70  82 W15G24    29.93S
SWANQUARTER      N/A     77 N/A N/A W20G26    29.88S

$$

NCZ095-097-098-100-101-040800-
SOUTHERN COAST

CITY           SKY/WX    TMP DP  RH WIND       PRES   REMARKS
BEAUFORT       PTCLDY    79  74  84 SW15G24   29.95S
CEDAR ISLAND     N/A     79 N/A N/A SW14G24   29.97S
JACKSONVILLE   NOT AVBL
PINEY ISLAND   CLOUDY   N/A N/A N/A SW17      29.94S
WILMINGTON     CLEAR     75  70  84 SW6       29.96S


$$

NCZ011>013-027>030-043-044-078>080-089-090>093-098-040800-
COASTAL PLAIN

CITY           SKY/WX    TMP DP  RH WIND       PRES   REMARKS
AHOSKIE        MOCLDY   N/A N/A N/A CALM      29.87F HAZE
CLINTON        CLOUDY    75  71  89 SW5       29.93S
ELIZABETHTOWN  CLEAR     74  70  88 S6        29.95S
GOLDSBORO      MOCLDY    74  72  91 SW6       29.89F
GREENVILLE     MOCLDY    73  73 100 W8        29.92S
HAVELOCK       MOCLDY    76  69  79 SW15      29.95S
KENANSVILLE    CLOUDY    74  70  86 SW3       29.94R
KINSTON        PTCLDY    76  70  81 SW8       29.91F
NEW BERN       CLOUDY    74  70  87 SW9       29.94S
RICHLANDS      CLEAR     72  66  83 SW8       29.94S
ROCKY MOUNT    MOCLDY    73  70  90 SW6       29.90S
WASHINGTON     PTCLDY    74  71  91 SW9       29.91S
WHITEVILLE     CLEAR     73  69  86 CALM      29.96S

$$

AMZ130-135-150-152-154-156-158-170-250-252-270-ANZ085-086-088-633-658-670-040800-
MARINE OBSERVATIONS

STATION/POSITION TIME  TEMP    WIND        PRES    WAVE   SWELL
                       AIR SEA DIR/SP/G            HT/PER HT/PER
                 (UTC) (F)     (DEG/KT/KT) (MB)    (FT/S) (FT/S)
CHESAPEAKE LIGHT 0700   76     220/ 15/ 16 1011.1
64 E VA BEACH    0650   77 77  180/ 10/ 10 1010.9    4/ 8   3/ 8
DUCK             0600   78 75  220/ 16/ 18 1010.8
2 E DUCK         0611      77                N/A     2/ 8
OREGON INLET     0600   78 71  230/ 19/ 22 1012.1
13E OREGON INLT  0700      69                N/A     5/ 7   2/14
HATTERAS CG      0600   77 77  230/ 11/ 18 1013.1
DIAMOND BUOY     0650   80 81  250/ 27/ 31 1013.0    8/ 6   2/15
CAPE LOOKOUT     0700   80     230/ 16/ 22 1013.9
BEAUFORT LAB     0600   80 80  240/ 12/ 20 1013.6
30 SE NEW RVR IN 0608   80 79  250/ 19/ 27 1014.9
27 SE WRIGHTSVLE 0600      80  240/ 19/ 23   N/A
5 SE WRIGHTSVLE  0608   80 78  240/ 17/ 23 1014.3
225 S CAPE HAT   0650   81 80  230/ 16/ 17 1018.5    5/ 9   2/ 9
41 SE CHARLESTON 0650   83 81  220/ 19/ 25 1015.8    5/ 5   2/ 9

$$


USA.gov is the U.S. government's official web portal to all federal, state and local government web resources and services.